Other Surface Observations
Issued by NWS

Home | Current Version | Previous Version | Text Only | Print | Product List | Glossary On
Versions: 1 2 3 4 5 6 7 8 9 10 11 12 13 14 15 16 17 18 19 20 21 22 23 24 25 26 27 28 29 30 31 32 33 34 35 36 37 38 39 40 41 42 43 44 45 46 47 48 49 50
000
SXUS52 KTAE 020918
OSOTAE
OSOTAE
North Florida/South Alabama/Southwest Georgia Weather Roundup
National Weather Service Tallahassee Florida
500 AM EDT TUE SEP 02 2014

Note: "fair" indicates few or no clouds below 12,000 feet with no
significant weather and/or obstructions to visibility.

!FLZ017-115-028-034-025-021000
...North Florida...

CITY           SKY/WX    TMP DP  RH WIND       PRES   REMARKS
TALLAHASSEE    CLEAR     74  71  91 CALM      30.04R
APALACHICOLA   CLEAR     74  72  93 N3        30.02F
PERRY          MOCLDY    73  73 100 CALM      30.04R
CROSS CITY       N/A     77  74  90 N6        30.03S
HOMERVILLE     FAIR      77  73  88 SE3       30.04S
JACKSONVILLE   CLEAR     74  74 100 CALM      30.03S
$$

!FLZ112-006-005-002-011-021000
...Florida Panhandle...

CITY           SKY/WX    TMP DP  RH WIND       PRES   REMARKS
MARIANNA       CLEAR     73  73 100 CALM      30.02S
BONIFAY        LGT RAIN  70  70 100 CALM      30.04S FOG
PANAMA CITY NW FAIR      75  72  90 CALM      30.02S
TYNDALL AFB    CLEAR     75  75 100 E3        30.03S
TYND DRONE APT FAIR      74  74 100 E1        30.01F
DE FUNIAK SPR  FAIR      74  73  98 CALM      30.05R
EGLIN AFB      PTCLDY    79  74  85 N3        30.02F
DESTIN         PTCLDY    85  76  74 CALM      30.02F HX  94
HURLBURT       CLEAR     83  71  66 N3        30.02S
CRESTVIEW      CLEAR     72  71  97 CALM      30.05S
PENSACOLA      CLEAR     79  74  84 S5        30.03R
$$

!ALZ063-066-021000
...South Alabama...

CITY           SKY/WX    TMP DP  RH WIND       PRES   REMARKS
DOTHAN         CLEAR     74  71  91 N5        30.08S
OZARK CAIRNS   CLEAR     73  71  93 NW5       30.05S
FT RUCKER HELI CLEAR     72  70  93 CALM      30.04S
RUCKER HELI 3  FAIR      72  71  96 N3        30.08R
RUCKER HELI 2  FAIR      72  70  93 NW5       30.05R
FLORALA APT    CLEAR     74  71  91 CALM      30.07R
ANDALUSIA      CLEAR     76  71  85 CALM      30.05R
TROY           CLEAR     72  69  90 CALM      30.07R
EUFALA         FAIR      73  71  93 CALM      30.04S
MOBILE         CLEAR     76  75  97 CALM      30.04S
$$

!GAZ120>161-021000
...Southwest and South Central Georgia...

CITY           SKY/WX    TMP DP  RH WIND       PRES   REMARKS
THOMASVILLE    FAIR      75  75 100 CALM      30.05R
BAINBRIDGE     CLEAR     77  73  88 CALM      30.03R
MOODY AFB      MOCLDY    73  72  95 SE2       30.04R
VALDOSTA       MOCLDY    74  72  93 NE3       30.04R
MOULTRIE       CLEAR     73  72  94 CALM      30.05R
BLAKELY        CLEAR     73  72  94 CALM        N/A
ALBANY         CLEAR     74  72  93 CALM      30.05R
TIFTON         FAIR      74  73  98 SW3       30.04S
FITZGERALD     FAIR      76  74  91 CALM      30.05F
CORDELE        FAIR      77  73  86 CALM      30.05R
AMERICUS       FAIR      73  72  94 CALM      30.06R
$$

!GMZ750-755-770-775-021000
...Coastal and Buoy Obs...

STATION/POSITION TIME  TEMP    WIND        PRES    VSBY  WAVE
                       AIR SEA DIR/SP/G                  HT/PER
                 (UTC) (F)     (DEG/KT/KT) (MB)    (MI)  (FT/S)
KEATON BEACH     0900   77     110/  3/  4 1017.0S
CEDAR KEY        0859   82     120/  5/  6 1017.0F
C TOWER          0900   83     160/  5/  6 1016.6F
APALACHICOLA BUO 0900   84 86  100/  6/  8 1016.7F         2/ 8
PANAMA CITY BUOY 0800   84 86  140/  6/  8 1016.4          3/ 6
MOBILE BUOY      NOT AVBL
ORANGE BCH AL BU 0900   84 85  170/ 10/ 12 1016.4R         3/ 6
$$



USA.gov is the U.S. government's official web portal to all federal, state and local government web resources and services.